Location: Brusselsch Zeekanaal
(50.8667°N, 4.3667°E)
Time: 05:56:15
(UTC+00:00)

USA 238 - Pass Details

Date: 08 November 2025
Orbit: 887 x 1324 km, 63.4° (Epoch: 24 November)

Event Time Altitude Azimuth Distance (km) Brightness Sun altitude
Exits shadow 03:33:09 51° 348° (NNW) 1,280 4.0 -30.6°
Drops below altitude 10° 03:39:17 10° 43° (NE) 2,977 6.6 -29.6°
Sets 03:42:12 0° 48° (NE) 4,007 7.5 -29.2°
